iso_date,epoch_date,Year,Hour,Min,DOY,POS_DOY,Lat,Lon,BP,Ts,Ta,has_bp,has_ts,has_ta,BuoyID,Buoy_Type,Buoy_Owner,Logistics,Hemisphere
2018-08-10T19:00:28Z,1533927629,2018,19,0,222.792,222.792,57.713,-9.949,-999.00,13.89,-999.0,no,yes,no,300234062957290,BD2GI,AOML,LAGARFOSS,North
2018-08-10T19:59:31Z,1533931171,2018,20,0,222.833,222.833,57.725,-9.935,-999.00,13.91,-999.0,no,yes,no,300234062957290,BD2GI,AOML,LAGARFOSS,North
2018-08-10T21:00:00Z,1533934800,2018,21,0,222.875,222.875,57.733,-9.914,-999.00,13.9,-999.0,no,yes,no,300234062957290,BD2GI,AOML,LAGARFOSS,North
2018-08-10T22:00:28Z,1533938429,2018,22,0,222.917,222.917,57.735,-9.892,-999.00,13.88,-999.0,no,yes,no,300234062957290,BD2GI,AOML,LAGARFOSS,North
2018-08-10T22:59:31Z,1533941971,2018,23,0,222.958,222.958,57.731,-9.876,-999.00,13.86,-999.0,no,yes,no,300234062957290,BD2GI,AOML,LAGARFOSS,North
2018-08-11T00:00:00Z,1533945600,2018,0,0,223.0,223.0,57.723,-9.867,-999.00,13.84,-999.0,no,yes,no,300234062957290,BD2GI,AOML,LAGARFOSS,North
2018-08-11T01:00:28Z,1533949229,2018,1,0,223.042,223.042,57.716,-9.863,-999.00,13.83,-999.0,no,yes,no,300234062957290,BD2GI,AOML,LAGARFOSS,North
2018-08-11T01:59:31Z,1533952771,2018,2,0,223.083,223.083,57.711,-9.865,-999.00,13.83,-999.0,no,yes,no,300234062957290,BD2GI,AOML,LAGARFOSS,North
2018-08-11T03:00:00Z,1533956400,2018,3,0,223.125,223.125,57.711,-9.87,-999.00,13.82,-999.0,no,yes,no,300234062957290,BD2GI,AOML,LAGARFOSS,North
2018-08-11T04:00:28Z,1533960029,2018,4,0,223.167,223.167,57.716,-9.876,-999.00,13.81,-999.0,no,yes,no,300234062957290,BD2GI,AOML,LAGARFOSS,North
2018-08-11T04:59:31Z,1533963571,2018,5,0,223.208,223.208,57.726,-9.88,-999.00,13.78,-999.0,no,yes,no,300234062957290,BD2GI,AOML,LAGARFOSS,North
2018-08-11T06:00:00Z,1533967200,2018,6,0,223.25,223.25,57.741,-9.877,-999.00,13.77,-999.0,no,yes,no,300234062957290,BD2GI,AOML,LAGARFOSS,North
2018-08-11T07:00:28Z,1533970829,2018,7,0,223.292,223.292,57.756,-9.869,-999.00,13.76,-999.0,no,yes,no,300234062957290,BD2GI,AOML,LAGARFOSS,North
2018-08-11T07:59:31Z,1533974371,2018,8,0,223.333,223.333,57.768,-9.858,-999.00,13.76,-999.0,no,yes,no,300234062957290,BD2GI,AOML,LAGARFOSS,North
2018-08-11T09:00:00Z,1533978000,2018,9,0,223.375,223.375,57.778,-9.842,-999.00,13.76,-999.0,no,yes,no,300234062957290,BD2GI,AOML,LAGARFOSS,North
2018-08-11T10:00:28Z,1533981629,2018,10,0,223.417,223.417,57.783,-9.827,-999.00,13.76,-999.0,no,yes,no,300234062957290,BD2GI,AOML,LAGARFOSS,North
2018-08-11T10:59:31Z,1533985171,2018,11,0,223.458,223.458,57.782,-9.814,-999.00,13.78,-999.0,no,yes,no,300234062957290,BD2GI,AOML,LAGARFOSS,North
2018-08-11T12:00:00Z,1533988800,2018,12,0,223.5,223.5,57.778,-9.804,-999.00,13.79,-999.0,no,yes,no,300234062957290,BD2GI,AOML,LAGARFOSS,North
2018-08-11T13:00:28Z,1533992429,2018,13,0,223.542,223.542,57.774,-9.799,-999.00,13.79,-999.0,no,yes,no,300234062957290,BD2GI,AOML,LAGARFOSS,North
2018-08-11T13:59:31Z,1533995971,2018,14,0,223.583,223.583,57.77,-9.801,-999.00,13.79,-999.0,no,yes,no,300234062957290,BD2GI,AOML,LAGARFOSS,North
2018-08-11T15:00:00Z,1533999600,2018,15,0,223.625,223.625,57.77,-9.807,-999.00,13.8,-999.0,no,yes,no,300234062957290,BD2GI,AOML,LAGARFOSS,North
2018-08-11T16:00:28Z,1534003229,2018,16,0,223.667,223.667,57.773,-9.812,-999.00,13.82,-999.0,no,yes,no,300234062957290,BD2GI,AOML,LAGARFOSS,North
2018-08-11T16:59:31Z,1534006771,2018,17,0,223.708,223.708,57.782,-9.82,-999.00,13.8,-999.0,no,yes,no,300234062957290,BD2GI,AOML,LAGARFOSS,North
2018-08-11T18:00:00Z,1534010400,2018,18,0,223.75,223.75,57.796,-9.829,-999.00,13.79,-999.0,no,yes,no,300234062957290,BD2GI,AOML,LAGARFOSS,North
2018-08-11T19:00:28Z,1534014029,2018,19,0,223.792,223.792,57.812,-9.832,-999.00,13.78,-999.0,no,yes,no,300234062957290,BD2GI,AOML,LAGARFOSS,North
2018-08-11T19:59:31Z,1534017571,2018,20,0,223.833,223.833,57.828,-9.829,-999.00,13.78,-999.0,no,yes,no,300234062957290,BD2GI,AOML,LAGARFOSS,North
2018-08-11T21:00:00Z,1534021200,2018,21,0,223.875,223.875,57.842,-9.822,-999.00,13.77,-999.0,no,yes,no,300234062957290,BD2GI,AOML,LAGARFOSS,North
2018-08-11T22:00:28Z,1534024829,2018,22,0,223.917,223.917,57.851,-9.814,-999.00,13.76,-999.0,no,yes,no,300234062957290,BD2GI,AOML,LAGARFOSS,North
2018-08-11T22:59:31Z,1534028371,2018,23,0,223.958,223.958,57.853,-9.808,-999.00,13.76,-999.0,no,yes,no,300234062957290,BD2GI,AOML,LAGARFOSS,North
2018-08-12T00:00:00Z,1534032000,2018,0,0,224.0,224.0,57.85,-9.807,-999.00,13.75,-999.0,no,yes,no,300234062957290,BD2GI,AOML,LAGARFOSS,North
2018-08-12T01:00:28Z,1534035629,2018,1,0,224.042,224.042,57.845,-9.811,-999.00,13.74,-999.0,no,yes,no,300234062957290,BD2GI,AOML,LAGARFOSS,North
2018-08-12T01:59:31Z,1534039171,2018,2,0,224.083,224.083,57.841,-9.816,-999.00,13.74,-999.0,no,yes,no,300234062957290,BD2GI,AOML,LAGARFOSS,North
2018-08-12T03:00:00Z,1534042800,2018,3,0,224.125,224.125,57.838,-9.826,-999.00,13.73,-999.0,no,yes,no,300234062957290,BD2GI,AOML,LAGARFOSS,North
2018-08-12T04:00:28Z,1534046429,2018,4,0,224.167,224.167,57.839,-9.837,-999.00,13.72,-999.0,no,yes,no,300234062957290,BD2GI,AOML,LAGARFOSS,North
2018-08-12T04:59:31Z,1534049971,2018,5,0,224.208,224.208,57.842,-9.849,-999.00,13.71,-999.0,no,yes,no,300234062957290,BD2GI,AOML,LAGARFOSS,North
2018-08-12T06:00:00Z,1534053600,2018,6,0,224.25,224.25,57.85,-9.863,-999.00,13.71,-999.0,no,yes,no,300234062957290,BD2GI,AOML,LAGARFOSS,North
2018-08-12T07:00:28Z,1534057229,2018,7,0,224.292,224.292,57.862,-9.878,-999.00,13.71,-999.0,no,yes,no,300234062957290,BD2GI,AOML,LAGARFOSS,North
2018-08-12T07:59:31Z,1534060771,2018,8,0,224.333,224.333,57.877,-9.885,-999.00,13.71,-999.0,no,yes,no,300234062957290,BD2GI,AOML,LAGARFOSS,North
2018-08-12T09:00:00Z,1534064400,2018,9,0,224.375,224.375,57.891,-9.888,-999.00,13.7,-999.0,no,yes,no,300234062957290,BD2GI,AOML,LAGARFOSS,North
2018-08-12T10:00:28Z,1534068029,2018,10,0,224.417,224.417,57.903,-9.887,-999.00,13.7,-999.0,no,yes,no,300234062957290,BD2GI,AOML,LAGARFOSS,North
2018-08-12T10:59:31Z,1534071571,2018,11,0,224.458,224.458,57.909,-9.885,-999.00,13.7,-999.0,no,yes,no,300234062957290,BD2GI,AOML,LAGARFOSS,North
2018-08-12T12:00:00Z,1534075200,2018,12,0,224.5,224.5,57.909,-9.885,-999.00,13.71,-999.0,no,yes,no,300234062957290,BD2GI,AOML,LAGARFOSS,North
2018-08-12T13:00:28Z,1534078829,2018,13,0,224.542,224.542,57.907,-9.884,-999.00,13.74,-999.0,no,yes,no,300234062957290,BD2GI,AOML,LAGARFOSS,North
2018-08-12T13:59:31Z,1534082371,2018,14,0,224.583,224.583,57.901,-9.887,-999.00,13.78,-999.0,no,yes,no,300234062957290,BD2GI,AOML,LAGARFOSS,North
2018-08-12T15:00:00Z,1534086000,2018,15,0,224.625,224.625,57.895,-9.899,-999.00,13.87,-999.0,no,yes,no,300234062957290,BD2GI,AOML,LAGARFOSS,North
2018-08-12T16:00:28Z,1534089629,2018,16,0,224.667,224.667,57.894,-9.914,-999.00,13.9,-999.0,no,yes,no,300234062957290,BD2GI,AOML,LAGARFOSS,North
2018-08-12T16:59:31Z,1534093171,2018,17,0,224.708,224.708,57.898,-9.928,-999.00,13.93,-999.0,no,yes,no,300234062957290,BD2GI,AOML,LAGARFOSS,North
2018-08-12T18:00:00Z,1534096800,2018,18,0,224.75,224.75,57.905,-9.943,-999.00,13.95,-999.0,no,yes,no,300234062957290,BD2GI,AOML,LAGARFOSS,North
2018-08-12T19:00:28Z,1534100429,2018,19,0,224.792,224.792,57.915,-9.956,-999.00,13.91,-999.0,no,yes,no,300234062957290,BD2GI,AOML,LAGARFOSS,North
2018-08-12T19:59:31Z,1534103971,2018,20,0,224.833,224.833,57.928,-9.967,-999.00,13.93,-999.0,no,yes,no,300234062957290,BD2GI,AOML,LAGARFOSS,North
2018-08-12T21:00:00Z,1534107600,2018,21,0,224.875,224.875,57.941,-9.973,-999.00,13.9,-999.0,no,yes,no,300234062957290,BD2GI,AOML,LAGARFOSS,North
2018-08-12T22:00:28Z,1534111229,2018,22,0,224.917,224.917,57.951,-9.977,-999.00,13.89,-999.0,no,yes,no,300234062957290,BD2GI,AOML,LAGARFOSS,North
2018-08-12T22:59:31Z,1534114771,2018,23,0,224.958,224.958,57.958,-9.977,-999.00,13.89,-999.0,no,yes,no,300234062957290,BD2GI,AOML,LAGARFOSS,North
2018-08-13T00:00:00Z,1534118400,2018,0,0,225.0,225.0,57.959,-9.978,-999.00,13.88,-999.0,no,yes,no,300234062957290,BD2GI,AOML,LAGARFOSS,North
2018-08-13T01:00:28Z,1534122029,2018,1,0,225.042,225.042,57.955,-9.982,-999.00,13.88,-999.0,no,yes,no,300234062957290,BD2GI,AOML,LAGARFOSS,North
2018-08-13T01:59:31Z,1534125571,2018,2,0,225.083,225.083,57.949,-9.991,-999.00,13.88,-999.0,no,yes,no,300234062957290,BD2GI,AOML,LAGARFOSS,North
2018-08-13T03:00:00Z,1534129200,2018,3,0,225.125,225.125,57.942,-10.004,-999.00,13.87,-999.0,no,yes,no,300234062957290,BD2GI,AOML,LAGARFOSS,North
2018-08-13T04:00:28Z,1534132829,2018,4,0,225.167,225.167,57.938,-10.021,-999.00,13.87,-999.0,no,yes,no,300234062957290,BD2GI,AOML,LAGARFOSS,North
2018-08-13T04:59:31Z,1534136371,2018,5,0,225.208,225.208,57.94,-10.041,-999.00,13.87,-999.0,no,yes,no,300234062957290,BD2GI,AOML,LAGARFOSS,North
2018-08-13T06:00:00Z,1534140000,2018,6,0,225.25,225.25,57.946,-10.059,-999.00,13.87,-999.0,no,yes,no,300234062957290,BD2GI,AOML,LAGARFOSS,North
2018-08-13T07:00:28Z,1534143629,2018,7,0,225.292,225.292,57.956,-10.074,-999.00,13.87,-999.0,no,yes,no,300234062957290,BD2GI,AOML,LAGARFOSS,North
2018-08-13T07:59:31Z,1534147171,2018,8,0,225.333,225.333,57.968,-10.079,-999.00,13.89,-999.0,no,yes,no,300234062957290,BD2GI,AOML,LAGARFOSS,North
2018-08-13T09:00:00Z,1534150800,2018,9,0,225.375,225.375,57.978,-10.079,-999.00,13.92,-999.0,no,yes,no,300234062957290,BD2GI,AOML,LAGARFOSS,North
2018-08-13T10:00:28Z,1534154429,2018,10,0,225.417,225.417,57.986,-10.08,-999.00,14.0,-999.0,no,yes,no,300234062957290,BD2GI,AOML,LAGARFOSS,North
2018-08-13T10:59:31Z,1534157971,2018,11,0,225.458,225.458,57.991,-10.08,-999.00,13.95,-999.0,no,yes,no,300234062957290,BD2GI,AOML,LAGARFOSS,North
2018-08-13T12:00:00Z,1534161600,2018,12,0,225.5,225.5,57.992,-10.079,-999.00,13.97,-999.0,no,yes,no,300234062957290,BD2GI,AOML,LAGARFOSS,North
2018-08-13T13:00:28Z,1534165229,2018,13,0,225.542,225.542,57.989,-10.08,-999.00,13.99,-999.0,no,yes,no,300234062957290,BD2GI,AOML,LAGARFOSS,North
2018-08-13T13:59:31Z,1534168771,2018,14,0,225.583,225.583,57.982,-10.088,-999.00,14.0,-999.0,no,yes,no,300234062957290,BD2GI,AOML,LAGARFOSS,North
2018-08-13T15:00:00Z,1534172400,2018,15,0,225.625,225.625,57.976,-10.101,-999.00,14.02,-999.0,no,yes,no,300234062957290,BD2GI,AOML,LAGARFOSS,North
2018-08-13T16:00:28Z,1534176029,2018,16,0,225.667,225.667,57.971,-10.12,-999.00,14.03,-999.0,no,yes,no,300234062957290,BD2GI,AOML,LAGARFOSS,North
2018-08-13T16:59:31Z,1534179571,2018,17,0,225.708,225.708,57.971,-10.137,-999.00,14.02,-999.0,no,yes,no,300234062957290,BD2GI,AOML,LAGARFOSS,North
2018-08-13T18:00:00Z,1534183200,2018,18,0,225.75,225.75,57.976,-10.157,-999.00,14.0,-999.0,no,yes,no,300234062957290,BD2GI,AOML,LAGARFOSS,North
2018-08-13T19:00:28Z,1534186829,2018,19,0,225.792,225.792,57.976,-10.157,-999.00,14.0,-999.0,no,yes,no,300234062957290,BD2GI,AOML,LAGARFOSS,North
2018-08-13T19:59:31Z,1534190371,2018,20,0,225.833,225.833,57.999,-10.171,-999.00,13.98,-999.0,no,yes,no,300234062957290,BD2GI,AOML,LAGARFOSS,North
2018-08-13T21:00:00Z,1534194000,2018,21,0,225.875,225.875,58.009,-10.172,-999.00,13.98,-999.0,no,yes,no,300234062957290,BD2GI,AOML,LAGARFOSS,North
2018-08-13T22:00:28Z,1534197629,2018,22,0,225.917,225.917,58.018,-10.168,-999.00,13.95,-999.0,no,yes,no,300234062957290,BD2GI,AOML,LAGARFOSS,North
2018-08-13T22:59:31Z,1534201171,2018,23,0,225.958,225.958,58.022,-10.161,-999.00,13.95,-999.0,no,yes,no,300234062957290,BD2GI,AOML,LAGARFOSS,North
2018-08-14T00:00:00Z,1534204800,2018,0,0,226.0,226.0,58.022,-10.161,-999.00,13.95,-999.0,no,yes,no,300234062957290,BD2GI,AOML,LAGARFOSS,North
2018-08-14T01:00:28Z,1534208429,2018,1,0,226.042,226.042,58.016,-10.159,-999.00,13.95,-999.0,no,yes,no,300234062957290,BD2GI,AOML,LAGARFOSS,North
2018-08-14T01:59:31Z,1534211971,2018,2,0,226.083,226.083,58.006,-10.168,-999.00,13.94,-999.0,no,yes,no,300234062957290,BD2GI,AOML,LAGARFOSS,North
2018-08-14T03:00:00Z,1534215600,2018,3,0,226.125,226.125,57.996,-10.183,-999.00,13.94,-999.0,no,yes,no,300234062957290,BD2GI,AOML,LAGARFOSS,North
2018-08-14T04:00:28Z,1534219229,2018,4,0,226.167,226.167,57.989,-10.202,-999.00,13.94,-999.0,no,yes,no,300234062957290,BD2GI,AOML,LAGARFOSS,North
2018-08-14T04:59:31Z,1534222771,2018,5,0,226.208,226.208,57.988,-10.219,-999.00,13.93,-999.0,no,yes,no,300234062957290,BD2GI,AOML,LAGARFOSS,North
2018-08-14T06:00:00Z,1534226400,2018,6,0,226.25,226.25,57.99,-10.235,-999.00,13.93,-999.0,no,yes,no,300234062957290,BD2GI,AOML,LAGARFOSS,North
2018-08-14T07:00:28Z,1534230029,2018,7,0,226.292,226.292,57.997,-10.247,-999.00,13.93,-999.0,no,yes,no,300234062957290,BD2GI,AOML,LAGARFOSS,North
2018-08-14T07:59:31Z,1534233571,2018,8,0,226.333,226.333,58.005,-10.251,-999.00,13.94,-999.0,no,yes,no,300234062957290,BD2GI,AOML,LAGARFOSS,North
2018-08-14T09:00:00Z,1534237200,2018,9,0,226.375,226.375,58.014,-10.249,-999.00,13.94,-999.0,no,yes,no,300234062957290,BD2GI,AOML,LAGARFOSS,North
2018-08-14T10:00:28Z,1534240829,2018,10,0,226.417,226.417,58.021,-10.247,-999.00,13.97,-999.0,no,yes,no,300234062957290,BD2GI,AOML,LAGARFOSS,North
2018-08-14T10:59:31Z,1534244371,2018,11,0,226.458,226.458,58.025,-10.246,-999.00,14.04,-999.0,no,yes,no,300234062957290,BD2GI,AOML,LAGARFOSS,North
2018-08-14T12:00:00Z,1534248000,2018,12,0,226.5,226.5,58.025,-10.245,-999.00,14.11,-999.0,no,yes,no,300234062957290,BD2GI,AOML,LAGARFOSS,North
2018-08-14T13:00:28Z,1534251629,2018,13,0,226.542,226.542,58.022,-10.246,-999.00,14.13,-999.0,no,yes,no,300234062957290,BD2GI,AOML,LAGARFOSS,North
2018-08-14T13:59:31Z,1534255171,2018,14,0,226.583,226.583,58.016,-10.253,-999.00,14.15,-999.0,no,yes,no,300234062957290,BD2GI,AOML,LAGARFOSS,North
2018-08-14T15:00:00Z,1534258800,2018,15,0,226.625,226.625,58.012,-10.264,-999.00,14.12,-999.0,no,yes,no,300234062957290,BD2GI,AOML,LAGARFOSS,North
2018-08-14T16:00:28Z,1534262429,2018,16,0,226.667,226.667,58.006,-10.274,-999.00,14.1,-999.0,no,yes,no,300234062957290,BD2GI,AOML,LAGARFOSS,North
2018-08-14T16:59:31Z,1534265971,2018,17,0,226.708,226.708,58.006,-10.274,-999.00,14.05,-999.0,no,yes,no,300234062957290,BD2GI,AOML,LAGARFOSS,North
2018-08-14T18:00:00Z,1534269600,2018,18,0,226.75,226.75,58.002,-10.291,-999.00,14.03,-999.0,no,yes,no,300234062957290,BD2GI,AOML,LAGARFOSS,North
2018-08-14T19:00:28Z,1534273229,2018,19,0,226.792,226.792,58.004,-10.294,-999.00,14.01,-999.0,no,yes,no,300234062957290,BD2GI,AOML,LAGARFOSS,North
2018-08-14T19:59:31Z,1534276771,2018,20,0,226.833,226.833,58.01,-10.298,-999.00,13.98,-999.0,no,yes,no,300234062957290,BD2GI,AOML,LAGARFOSS,North
2018-08-14T21:00:00Z,1534280400,2018,21,0,226.875,226.875,58.015,-10.299,-999.00,13.97,-999.0,no,yes,no,300234062957290,BD2GI,AOML,LAGARFOSS,North
2018-08-14T22:00:28Z,1534284029,2018,22,0,226.917,226.917,58.019,-10.3,-999.00,13.96,-999.0,no,yes,no,300234062957290,BD2GI,AOML,LAGARFOSS,North
2018-08-14T22:59:31Z,1534287571,2018,23,0,226.958,226.958,58.024,-10.301,-999.00,13.95,-999.0,no,yes,no,300234062957290,BD2GI,AOML,LAGARFOSS,North
2018-08-15T00:00:00Z,1534291200,2018,0,0,227.0,227.0,58.025,-10.304,-999.00,13.94,-999.0,no,yes,no,300234062957290,BD2GI,AOML,LAGARFOSS,North
2018-08-15T01:00:28Z,1534294829,2018,1,0,227.042,227.042,58.025,-10.305,-999.00,13.93,-999.0,no,yes,no,300234062957290,BD2GI,AOML,LAGARFOSS,North
2018-08-15T01:59:31Z,1534298371,2018,2,0,227.083,227.083,58.024,-10.307,-999.00,13.92,-999.0,no,yes,no,300234062957290,BD2GI,AOML,LAGARFOSS,North
2018-08-15T03:00:00Z,1534302000,2018,3,0,227.125,227.125,58.024,-10.307,-999.00,13.91,-999.0,no,yes,no,300234062957290,BD2GI,AOML,LAGARFOSS,North
2018-08-15T04:00:28Z,1534305629,2018,4,0,227.167,227.167,58.014,-10.305,-999.00,13.9,-999.0,no,yes,no,300234062957290,BD2GI,AOML,LAGARFOSS,North
2018-08-15T04:59:31Z,1534309171,2018,5,0,227.208,227.208,58.007,-10.309,-999.00,13.88,-999.0,no,yes,no,300234062957290,BD2GI,AOML,LAGARFOSS,North
2018-08-15T06:00:00Z,1534312800,2018,6,0,227.25,227.25,58.004,-10.317,-999.00,13.87,-999.0,no,yes,no,300234062957290,BD2GI,AOML,LAGARFOSS,North
2018-08-15T07:00:28Z,1534316429,2018,7,0,227.292,227.292,58.003,-10.32,-999.00,13.87,-999.0,no,yes,no,300234062957290,BD2GI,AOML,LAGARFOSS,North
2018-08-15T07:59:31Z,1534319971,2018,8,0,227.333,227.333,58.005,-10.324,-999.00,13.86,-999.0,no,yes,no,300234062957290,BD2GI,AOML,LAGARFOSS,North
2018-08-15T09:00:00Z,1534323600,2018,9,0,227.375,227.375,58.005,-10.324,-999.00,13.85,-999.0,no,yes,no,300234062957290,BD2GI,AOML,LAGARFOSS,North
2018-08-15T10:00:28Z,1534327229,2018,10,0,227.417,227.417,58.017,-10.325,-999.00,13.85,-999.0,no,yes,no,300234062957290,BD2GI,AOML,LAGARFOSS,North
2018-08-15T10:59:31Z,1534330771,2018,11,0,227.458,227.458,58.023,-10.323,-999.00,13.84,-999.0,no,yes,no,300234062957290,BD2GI,AOML,LAGARFOSS,North
2018-08-15T12:00:00Z,1534334400,2018,12,0,227.5,227.5,58.027,-10.319,-999.00,13.83,-999.0,no,yes,no,300234062957290,BD2GI,AOML,LAGARFOSS,North
2018-08-15T13:00:28Z,1534338029,2018,13,0,227.542,227.542,58.03,-10.315,-999.00,13.84,-999.0,no,yes,no,300234062957290,BD2GI,AOML,LAGARFOSS,North
2018-08-15T13:59:31Z,1534341571,2018,14,0,227.583,227.583,58.03,-10.308,-999.00,13.85,-999.0,no,yes,no,300234062957290,BD2GI,AOML,LAGARFOSS,North
2018-08-15T15:00:00Z,1534345200,2018,15,0,227.625,227.625,58.027,-10.303,-999.00,13.85,-999.0,no,yes,no,300234062957290,BD2GI,AOML,LAGARFOSS,North
2018-08-15T16:00:28Z,1534348829,2018,16,0,227.667,227.667,58.02,-10.301,-999.00,13.86,-999.0,no,yes,no,300234062957290,BD2GI,AOML,LAGARFOSS,North
2018-08-15T16:59:31Z,1534352371,2018,17,0,227.708,227.708,58.013,-10.303,-999.00,13.84,-999.0,no,yes,no,300234062957290,BD2GI,AOML,LAGARFOSS,North
2018-08-15T18:00:00Z,1534356000,2018,18,0,227.75,227.75,58.013,-10.303,-999.00,13.84,-999.0,no,yes,no,300234062957290,BD2GI,AOML,LAGARFOSS,North
2018-08-15T19:00:28Z,1534359629,2018,19,0,227.792,227.792,58.007,-10.314,-999.00,13.82,-999.0,no,yes,no,300234062957290,BD2GI,AOML,LAGARFOSS,North
2018-08-15T19:59:31Z,1534363171,2018,20,0,227.833,227.833,58.009,-10.318,-999.00,13.81,-999.0,no,yes,no,300234062957290,BD2GI,AOML,LAGARFOSS,North
2018-08-15T21:00:00Z,1534366800,2018,21,0,227.875,227.875,58.011,-10.322,-999.00,13.79,-999.0,no,yes,no,300234062957290,BD2GI,AOML,LAGARFOSS,North
2018-08-15T22:00:28Z,1534370429,2018,22,0,227.917,227.917,58.016,-10.326,-999.00,13.77,-999.0,no,yes,no,300234062957290,BD2GI,AOML,LAGARFOSS,North
2018-08-15T22:59:31Z,1534373971,2018,23,0,227.958,227.958,58.016,-10.326,-999.00,13.75,-999.0,no,yes,no,300234062957290,BD2GI,AOML,LAGARFOSS,North
2018-08-16T00:00:00Z,1534377600,2018,0,0,228.0,228.0,58.016,-10.326,-999.00,13.74,-999.0,no,yes,no,300234062957290,BD2GI,AOML,LAGARFOSS,North
2018-08-16T01:00:28Z,1534381229,2018,1,0,228.042,228.042,58.033,-10.318,-999.00,13.73,-999.0,no,yes,no,300234062957290,BD2GI,AOML,LAGARFOSS,North
2018-08-16T01:59:31Z,1534384771,2018,2,0,228.083,228.083,58.034,-10.312,-999.00,13.72,-999.0,no,yes,no,300234062957290,BD2GI,AOML,LAGARFOSS,North
2018-08-16T03:00:00Z,1534388400,2018,3,0,228.125,228.125,58.031,-10.309,-999.00,13.71,-999.0,no,yes,no,300234062957290,BD2GI,AOML,LAGARFOSS,North
2018-08-16T04:00:28Z,1534392029,2018,4,0,228.167,228.167,58.025,-10.311,-999.00,13.7,-999.0,no,yes,no,300234062957290,BD2GI,AOML,LAGARFOSS,North
2018-08-16T04:59:31Z,1534395571,2018,5,0,228.208,228.208,58.019,-10.316,-999.00,13.69,-999.0,no,yes,no,300234062957290,BD2GI,AOML,LAGARFOSS,North
2018-08-16T06:00:00Z,1534399200,2018,6,0,228.25,228.25,58.013,-10.322,-999.00,13.68,-999.0,no,yes,no,300234062957290,BD2GI,AOML,LAGARFOSS,North
2018-08-16T07:00:28Z,1534402829,2018,7,0,228.292,228.292,58.009,-10.328,-999.00,13.68,-999.0,no,yes,no,300234062957290,BD2GI,AOML,LAGARFOSS,North
2018-08-16T07:59:31Z,1534406371,2018,8,0,228.333,228.333,58.009,-10.331,-999.00,13.68,-999.0,no,yes,no,300234062957290,BD2GI,AOML,LAGARFOSS,North
2018-08-16T09:00:00Z,1534410000,2018,9,0,228.375,228.375,58.009,-10.331,-999.00,13.68,-999.0,no,yes,no,300234062957290,BD2GI,AOML,LAGARFOSS,North
2018-08-16T10:00:28Z,1534413629,2018,10,0,228.417,228.417,58.011,-10.331,-999.00,13.69,-999.0,no,yes,no,300234062957290,BD2GI,AOML,LAGARFOSS,North
2018-08-16T10:59:31Z,1534417171,2018,11,0,228.458,228.458,58.012,-10.329,-999.00,13.69,-999.0,no,yes,no,300234062957290,BD2GI,AOML,LAGARFOSS,North
2018-08-16T12:00:00Z,1534420800,2018,12,0,228.5,228.5,58.012,-10.328,-999.00,13.72,-999.0,no,yes,no,300234062957290,BD2GI,AOML,LAGARFOSS,North
2018-08-16T13:00:28Z,1534424429,2018,13,0,228.542,228.542,58.012,-10.33,-999.00,13.73,-999.0,no,yes,no,300234062957290,BD2GI,AOML,LAGARFOSS,North
2018-08-16T13:59:31Z,1534427971,2018,14,0,228.583,228.583,58.012,-10.333,-999.00,13.75,-999.0,no,yes,no,300234062957290,BD2GI,AOML,LAGARFOSS,North
2018-08-16T15:00:00Z,1534431600,2018,15,0,228.625,228.625,58.01,-10.341,-999.00,13.76,-999.0,no,yes,no,300234062957290,BD2GI,AOML,LAGARFOSS,North
2018-08-16T16:00:28Z,1534435229,2018,16,0,228.667,228.667,58.009,-10.349,-999.00,13.75,-999.0,no,yes,no,300234062957290,BD2GI,AOML,LAGARFOSS,North
2018-08-16T16:59:31Z,1534438771,2018,17,0,228.708,228.708,58.009,-10.349,-999.00,13.75,-999.0,no,yes,no,300234062957290,BD2GI,AOML,LAGARFOSS,North
2018-08-16T18:00:00Z,1534442400,2018,18,0,228.75,228.75,58.007,-10.35,-999.00,13.74,-999.0,no,yes,no,300234062957290,BD2GI,AOML,LAGARFOSS,North
2018-08-16T19:00:28Z,1534446029,2018,19,0,228.792,228.792,58.006,-10.347,-999.00,13.74,-999.0,no,yes,no,300234062957290,BD2GI,AOML,LAGARFOSS,North
2018-08-16T19:59:31Z,1534449571,2018,20,0,228.833,228.833,58.006,-10.344,-999.00,13.73,-999.0,no,yes,no,300234062957290,BD2GI,AOML,LAGARFOSS,North
2018-08-16T21:00:00Z,1534453200,2018,21,0,228.875,228.875,58.006,-10.344,-999.00,13.72,-999.0,no,yes,no,300234062957290,BD2GI,AOML,LAGARFOSS,North
2018-08-16T22:00:28Z,1534456829,2018,22,0,228.917,228.917,58.006,-10.331,-999.00,13.7,-999.0,no,yes,no,300234062957290,BD2GI,AOML,LAGARFOSS,North
2018-08-16T22:59:31Z,1534460371,2018,23,0,228.958,228.958,58.005,-10.323,-999.00,13.68,-999.0,no,yes,no,300234062957290,BD2GI,AOML,LAGARFOSS,North
2018-08-17T00:00:00Z,1534464000,2018,0,0,229.0,229.0,58.001,-10.316,-999.00,13.67,-999.0,no,yes,no,300234062957290,BD2GI,AOML,LAGARFOSS,North
2018-08-17T01:00:28Z,1534467629,2018,1,0,229.042,229.042,58.001,-10.316,-999.00,13.64,-999.0,no,yes,no,300234062957290,BD2GI,AOML,LAGARFOSS,North
2018-08-17T01:59:31Z,1534471171,2018,2,0,229.083,229.083,58.001,-10.316,-999.00,13.64,-999.0,no,yes,no,300234062957290,BD2GI,AOML,LAGARFOSS,North
2018-08-17T03:00:00Z,1534474800,2018,3,0,229.125,229.125,57.984,-10.332,-999.00,13.63,-999.0,no,yes,no,300234062957290,BD2GI,AOML,LAGARFOSS,North
2018-08-17T04:00:28Z,1534478429,2018,4,0,229.167,229.167,57.982,-10.34,-999.00,13.62,-999.0,no,yes,no,300234062957290,BD2GI,AOML,LAGARFOSS,North
2018-08-17T04:59:31Z,1534481971,2018,5,0,229.208,229.208,57.979,-10.348,-999.00,13.61,-999.0,no,yes,no,300234062957290,BD2GI,AOML,LAGARFOSS,North
2018-08-17T06:00:00Z,1534485600,2018,6,0,229.25,229.25,57.977,-10.353,-999.00,13.6,-999.0,no,yes,no,300234062957290,BD2GI,AOML,LAGARFOSS,North
2018-08-17T07:00:28Z,1534489229,2018,7,0,229.292,229.292,57.976,-10.355,-999.00,13.6,-999.0,no,yes,no,300234062957290,BD2GI,AOML,LAGARFOSS,North
2018-08-17T07:59:31Z,1534492771,2018,8,0,229.333,229.333,57.978,-10.352,-999.00,13.61,-999.0,no,yes,no,300234062957290,BD2GI,AOML,LAGARFOSS,North
2018-08-17T09:00:00Z,1534496400,2018,9,0,229.375,229.375,57.98,-10.344,-999.00,13.61,-999.0,no,yes,no,300234062957290,BD2GI,AOML,LAGARFOSS,North
2018-08-17T10:00:28Z,1534500029,2018,10,0,229.417,229.417,57.983,-10.334,-999.00,13.62,-999.0,no,yes,no,300234062957290,BD2GI,AOML,LAGARFOSS,North
2018-08-17T10:59:31Z,1534503571,2018,11,0,229.458,229.458,57.983,-10.321,-999.00,13.62,-999.0,no,yes,no,300234062957290,BD2GI,AOML,LAGARFOSS,North
2018-08-17T12:00:00Z,1534507200,2018,12,0,229.5,229.5,57.981,-10.304,-999.00,13.63,-999.0,no,yes,no,300234062957290,BD2GI,AOML,LAGARFOSS,North
2018-08-17T13:00:28Z,1534510829,2018,13,0,229.542,229.542,57.974,-10.293,-999.00,13.64,-999.0,no,yes,no,300234062957290,BD2GI,AOML,LAGARFOSS,North
2018-08-17T13:59:31Z,1534514371,2018,14,0,229.583,229.583,57.966,-10.289,-999.00,13.65,-999.0,no,yes,no,300234062957290,BD2GI,AOML,LAGARFOSS,North